DW2536 Weather Reports


time (UTC)temp
C
wind
direction
speed
KPH
gust
KPH
rain 1hr
cm
rain 24hr
cm
rain mn
cm
humidity
%
barometer
mb
20260506224532 9 76 1.6 3.2 0.00 0.00 0.00 65 1015.3
20260506223525 9 51 1.6 6.4 0.00 0.00 0.00 64 1015.3
20260506222523 10 56 1.6 4.8 0.00 0.00 0.00 64 1015.1
20260506221524 10 71 1.6 3.2 0.00 0.00 0.00 63 1015.0
20260506220525 10 92 1.6 4.8 0.00 0.00 0.00 63 1015.0
20260506215515 10 340 1.6 3.2 0.00 0.00 0.00 62 1015.0
20260506214522 10 42 1.6 3.2 0.00 0.00 0.00 62 1015.0
20260506213524 10 290 1.6 3.2 0.00 0.00 0.00 60 1014.9
20260506212545 10 15 0.0 1.6 0.00 0.00 0.00 59 1014.9
20260506211536 11 24 1.6 1.6 0.00 0.00 0.00 59 1014.8
20260506210538 11 121 1.6 3.2 0.00 0.00 0.00 59 1014.8
20260506205519 11 66 1.6 8.0 0.00 0.00 0.00 58 1014.8
20260506204521 11 79 1.6 4.8 0.00 0.00 0.00 57 1014.7
20260506203521 11 318 1.6 8.0 0.00 0.00 0.00 57 1014.6
20260506202519 12 249 1.6 4.8 0.00 0.00 0.00 56 1014.5
20260506201521 12 169 1.6 4.8 0.00 0.00 0.00 56 1014.4
20260506200523 12 61 3.2 6.4 0.00 0.00 0.00 55 1014.3
20260506195525 12 63 1.6 6.4 0.00 0.00 0.00 55 1014.2
20260506194527 12 13 4.8 4.8 0.00 0.00 0.00 55 1014.1
20260506193543 12 12 3.2 6.4 0.00 0.00 0.00 55 1014.0
20260506192522 12 131 4.8 4.8 0.00 0.00 0.00 54 1013.9
20260506191523 12 77 4.8 6.4 0.00 0.00 0.00 54 1013.8
20260506190524 12 85 4.8 6.4 0.00 0.00 0.00 54 1013.7
20260506185525 12 140 6.4 11.3 0.00 0.00 0.00 54 1013.7
20260506184515 12 118 4.8 8.0 0.00 0.00 0.00 53 1013.5
20260506183517 13 60 4.8 9.7 0.00 0.00 0.00 51 1013.3
20260506182518 13 118 6.4 9.7 0.00 0.00 0.00 50 1013.2
20260506181520 13 49 6.4 8.0 0.00 0.00 0.00 50 1013.0
20260506180521 13 72 8.0 16.1 0.00 0.00 0.00 50 1012.9
20260506175522 13 75 8.0 17.7 0.00 0.00 0.00 50 1012.8
20260506174546 13 92 6.4 9.7 0.00 0.00 0.00 51 1012.7
20260506173537 13 79 9.7 12.9 0.00 0.00 0.00 51 1012.5
20260506172538 13 57 4.8 16.1 0.00 0.00 0.00 50 1012.6
20260506171517 13 91 4.8 9.7 0.00 0.00 0.00 50 1012.7
20260506170520 13 109 6.4 12.9 0.00 0.00 0.00 49 1012.5
20260506165520 13 57 6.4 9.7 0.00 0.00 0.00 47 1012.5
20260506164521 13 85 4.8 11.3 0.00 0.00 0.00 45 1012.5
20260506163523 13 64 6.4 11.3 0.00 0.00 0.00 44 1012.6
20260506162546 13 98 4.8 11.3 0.00 0.00 0.00 43 1012.6
20260506161544 13 86 3.2 8.0 0.00 0.00 0.00 41 1012.5
20260506160523 13 108 4.8 11.3 0.00 0.00 0.00 40 1012.5
20260506155543 14 74 6.4 11.3 0.00 0.00 0.00 39 1012.5
20260506154524 14 59 4.8 8.0 0.00 0.00 0.00 39 1012.5
20260506153525 14 88 3.2 9.7 0.00 0.00 0.00 38 1012.6
20260506152525 15 143 6.4 8.0 0.00 0.00 0.00 41 1012.5
20260506151516 15 71 6.4 19.3 0.00 0.00 0.00 42 1012.3
20260506150517 15 72 4.8 8.0 0.00 0.00 0.00 46 1012.3
20260506145521 15 100 4.8 8.0 0.00 0.00 0.00 46 1012.3
20260506144522 15 61 6.4 11.3 0.00 0.00 0.00 42 1012.2
20260506143525 15 68 8.0 9.7 0.00 0.00 0.00 34 1012.2
20260506142516 16 68 9.7 16.1 0.00 0.00 0.00 33 1012.2
20260506141524 16 82 9.7 14.5 0.00 0.00 0.00 33 1012.2
20260506140515 16 96 9.7 20.9 0.00 0.00 0.00 32 1012.1
20260506135517 16 69 9.7 14.5 0.00 0.00 0.00 32 1012.1
20260506134541 16 73 9.7 16.1 0.00 0.00 0.00 32 1012.0
20260506133523 16 88 8.0 17.7 0.00 0.00 0.00 32 1011.9
20260506132525 16 96 9.7 12.9 0.00 0.00 0.00 32 1011.9
20260506131527 16 40 8.0 17.7 0.00 0.00 0.00 32 1012.0
20260506130516 16 112 9.7 12.9 0.00 0.00 0.00 32 1011.8
20260506125517 16 106 9.7 16.1 0.00 0.00 0.00 33 1011.7
20260506124518 16 76 9.7 22.5 0.00 0.00 0.00 33 1011.8
20260506123541 16 29 9.7 16.1 0.00 0.00 0.00 34 1011.9
20260506122521 16 90 9.7 17.7 0.00 0.00 0.00 33 1011.6
20260506121522 16 75 9.7 17.7 0.00 0.00 0.00 33 1011.4
20260506120523 16 126 9.7 20.9 0.00 0.00 0.00 34 1011.4
20260506115523 16 67 11.3 17.7 0.00 0.00 0.00 33 1011.5
20260506114523 15 79 9.7 19.3 0.00 0.00 0.00 33 1011.5
20260506113526 15 91 8.0 11.3 0.00 0.00 0.00 41 1011.5
20260506112536 15 72 8.0 12.9 0.00 0.00 0.00 42 1011.6
20260506111518 15 50 6.4 17.7 0.00 0.00 0.00 44 1011.7
20260506110518 15 108 6.4 12.9 0.00 0.00 0.00 44 1011.5
20260506105520 15 107 8.0 11.3 0.00 0.00 0.00 46 1011.3
20260506104519 15 89 6.4 9.7 0.00 0.00 0.00 47 1011.2
20260506103521 15 38 6.4 17.7 0.00 0.00 0.00 50 1011.2
20260506102524 15 118 8.0 12.9 0.00 0.00 0.00 52 1011.2
20260506101525 15 71 8.0 22.5 0.00 0.00 0.00 51 1011.3
20260506100525 14 147 6.4 11.3 0.00 0.00 0.00 53 1011.1
20260506095516 14 127 6.4 9.7 0.00 0.00 0.00 53 1011.0
20260506094528 14 96 6.4 14.5 0.00 0.00 0.00 52 1010.9
20260506093527 14 64 4.8 14.5 0.00 0.00 0.00 53 1010.8
20260506092601 14 68 4.8 6.4 0.00 0.00 0.00 54 1010.7
20260506091519 14 72 6.4 12.9 0.00 0.00 0.00 53 1010.7
20260506090519 13 34 8.0 17.7 0.00 0.00 0.00 54 1010.7
20260506085521 13 79 9.7 17.7 0.00 0.00 0.00 54 1010.7
20260506084519 13 107 8.0 11.3 0.00 0.00 0.00 55 1010.6
20260506083519 13 143 9.7 20.9 0.00 0.00 0.00 56 1010.6
20260506082541 13 63 6.4 12.9 0.00 0.00 0.00 57 1010.6
20260506081520 13 108 4.8 9.7 0.00 0.00 0.00 59 1010.7
20260506080523 13 80 6.4 17.7 0.00 0.00 0.00 62 1010.6
20260506072520 12 76 8.0 11.3 0.00 0.00 0.00 67 1010.6
20260506071521 12 11 4.8 14.5 0.00 0.00 0.00 68 1010.5
20260506070524 12 77 4.8 11.3 0.00 0.00 0.00 68 1010.4
20260506061518 11 268 4.8 6.4 0.00 0.00 0.00 71 1010.0
20260506060521 11 25 4.8 12.9 0.00 0.00 0.00 71 1009.9
20260506050516 10 49 3.2 8.0 0.00 0.00 0.00 74 1010.3
20260506044527 10 351 3.2 8.0 0.00 0.00 0.00 74 1010.3
20260506043526 10 24 3.2 8.0 0.00 0.00 0.00 74 1010.2
20260506042516 10 76 3.2 6.4 0.00 0.00 0.00 74 1010.4
20260506041517 10 110 3.2 8.0 0.00 0.00 0.00 73 1010.5
20260506040517 10 357 3.2 9.7 0.00 0.00 0.00 73 1010.5
20260506035520 10 24 3.2 6.4 0.00 0.00 0.00 73 1010.5
20260506034542 10 73 1.6 8.0 0.00 0.00 0.00 73 1010.5
20260506033522 10 172 1.6 6.4 0.00 0.00 0.00 73 1010.5
20260506032524 10 86 1.6 4.8 0.00 0.00 0.00 72 1010.6
20260506031526 10 95 1.6 3.2 0.00 0.00 0.00 72 1010.7
20260506030537 10 55 3.2 8.0 0.00 0.00 0.00 73 1010.7
20260506025518 10 80 3.2 11.3 0.00 0.00 0.00 73 1010.7
20260506024530 9 39 3.2 6.4 0.00 0.00 0.00 73 1010.9
20260506023542 9 254 1.6 6.4 0.00 0.00 0.00 73 1011.0
20260506022525 9 32 3.2 4.8 0.00 0.00 0.00 73 1011.0
20260506021516 9 22 1.6 4.8 0.00 0.00 0.00 73 1011.0
20260506020558 9 106 1.6 4.8 0.00 0.00 0.00 73 1011.1
20260506015529 9 29 1.6 6.4 0.00 0.00 0.00 73 1011.2
20260506014517 9 320 3.2 4.8 0.00 0.00 0.00 73 1011.2
20260506013517 9 9 3.2 8.0 0.00 0.00 0.00 73 1011.2
20260506012518 9 22 1.6 6.4 0.00 0.00 0.00 73 1011.3
20260506011520 8 100 1.6 3.2 0.00 0.00 0.00 73 1011.4
20260506010515 8 29 1.6 6.4 0.00 0.00 0.00 73 1011.6
20260506005517 8 21 1.6 4.8 0.00 0.00 0.00 73 1011.7
20260506004519 8 121 1.6 6.4 0.00 0.00 0.00 73 1011.9
20260506003542 8 158 3.2 9.7 0.00 0.00 0.00 72 1012.0
20260506002525 8 83 1.6 4.8 0.00 0.00 0.00 72 1012.0
20260506001526 8 192 1.6 6.4 0.00 0.00 0.00 71 1012.0
20260506000525 8 69 3.2 4.8 0.00 0.00 0.00 70 1012.0
20260505235525 8 29 1.6 3.2 0.00 0.00 0.00 70 1012.1
20260505234517 8 109 3.2 8.0 0.00 0.00 0.00 70 1012.3
20260505233518 8 33 1.6 4.8 0.00 0.00 0.00 69 1012.5
20260505232521 8 68 3.2 8.0 0.00 0.00 0.00 69 1012.6
20260505231520 8 360 1.6 8.0 0.00 0.00 0.00 68 1012.7
20260505230542 8 142 1.6 3.2 0.00 0.00 0.00 68 1012.7
20260505225523 8 332 1.6 8.0 0.00 0.00 0.00 67 1012.7